FW4132 Weather Reports


Display with metric or nautical units.
time (UTC)temp
F
wind
direction
speed
MPH
gust
MPH
rain 1hr
in
rain 24hr
in
rain mn
in
humidity
%
barometer
mb
20260905041527 42 117 0.0 0.0 0.00 0.00 0.00 83 1018.4
20260905041254 43 117 0.0 0.0 0.00 0.00 0.00 84 1019.8
20260905041011 43 117 0.0 0.0 0.00 0.00 0.00 83 1018.4
20260905040753 43 117 0.0 0.0 0.00 0.00 0.00 83 1019.7
20260905040517 43 117 0.0 0.0 0.00 0.00 0.00 83 1018.4
20260905040254 44 117 0.0 0.0 0.00 0.00 0.00 83 1019.7
20260905040016 43 117 0.0 0.0 0.00 0.00 0.00 82 1018.4
20260905035752 44 117 0.0 0.0 0.00 0.00 0.00 82 1019.8
20260905035511 43 117 0.0 0.0 0.00 0.00 0.00 81 1018.4
20260905035252 44 117 0.0 0.0 0.00 0.00 0.00 82 1019.7
20260905035014 44 117 0.0 0.0 0.00 0.00 0.00 80 1018.3
20260905034748 44 117 0.0 0.0 0.00 0.00 0.00 81 1019.7
20260905034531 44 117 0.0 0.0 0.00 0.00 0.00 80 1018.3
20260905034239 45 117 0.0 0.0 0.00 0.00 0.00 80 1019.7
20260905034011 45 117 0.0 0.0 0.00 0.00 0.00 80 1018.3
20260905033733 45 117 0.0 0.0 0.00 0.00 0.00 79 1019.6
20260905033512 45 117 0.0 0.0 0.00 0.00 0.00 79 1018.2
20260905033449 46 117 0.0 0.0 0.00 0.00 0.00 79 1019.6
20260905033034 45 117 0.0 0.0 0.00 0.00 0.00 79 1018.2
20260905032721 46 117 0.0 0.0 0.00 0.00 0.00 79 1019.7
20260905032505 46 117 0.0 0.0 0.00 0.00 0.00 79 1018.1
20260905032215 46 117 0.0 0.0 0.00 0.00 0.00 80 1019.7
20260905032012 46 117 0.0 0.0 0.00 0.00 0.00 78 1018.1
20260905031932 46 117 0.0 0.0 0.00 0.00 0.00 79 1019.6
20260905031521 46 117 0.0 0.0 0.00 0.00 0.00 77 1018.0
20260905031423 47 117 0.0 0.0 0.00 0.00 0.00 77 1019.6
20260905031011 46 117 0.0 0.0 0.00 0.00 0.00 77 1018.0
20260905030657 47 117 0.0 0.0 0.00 0.00 0.00 76 1019.3
20260905030507 46 117 0.0 0.0 0.00 0.00 0.00 75 1017.9
20260905030151 47 117 0.0 0.0 0.00 0.00 0.00 75 1019.2
20260905030026 47 117 0.0 1.0 0.00 0.00 0.00 74 1017.9
20260905025645 48 117 0.0 1.0 0.00 0.00 0.00 74 1019.1
20260905025512 47 117 0.0 1.0 0.00 0.00 0.00 73 1017.9
20260905025140 48 117 0.0 1.0 0.00 0.00 0.00 73 1019.2
20260905025016 48 117 0.0 1.0 0.00 0.00 0.00 73 1017.9
20260905024633 48 117 0.0 1.0 0.00 0.00 0.00 72 1019.2
20260905024529 48 117 0.0 1.0 0.00 0.00 0.00 72 1017.9
20260905024127 49 117 0.0 1.0 0.00 0.00 0.00 71 1019.0
20260905024013 48 117 0.0 1.0 0.00 0.00 0.00 71 1017.8
20260905023620 49 117 0.0 1.0 0.00 0.00 0.00 72 1019.0
20260905023515 49 117 0.0 1.0 0.00 0.00 0.00 72 1017.7
20260905023114 49 117 0.0 1.0 0.00 0.00 0.00 71 1019.0
20260905023020 49 117 0.0 1.0 0.00 0.00 0.00 70 1017.6
20260905022610 49 117 0.0 1.0 0.00 0.00 0.00 71 1018.9
20260905022515 49 117 0.0 1.0 0.00 0.00 0.00 70 1017.5
20260905022103 50 117 0.0 1.0 0.00 0.00 0.00 71 1018.9
20260905022014 49 117 0.0 1.0 0.00 0.00 0.00 70 1017.6
20260905021818 50 117 0.0 3.0 0.00 0.00 0.00 72 1018.9
20260905021537 50 117 0.0 3.0 0.00 0.00 0.00 71 1017.5
20260905021051 50 117 0.0 3.0 0.00 0.00 0.00 72 1018.8
20260905021009 50 117 0.0 3.0 0.00 0.00 0.00 71 1017.6
20260905020545 51 117 0.0 2.0 0.00 0.00 0.00 70 1018.8
20260905020510 50 117 0.0 2.0 0.00 0.00 0.00 70 1017.6
20260905020041 51 119 1.0 3.0 0.00 0.00 0.00 71 1018.9
20260905020010 50 119 0.0 3.0 0.00 0.00 0.00 70 1017.5
20260905015533 51 119 1.0 4.0 0.00 0.00 0.00 70 1018.9
20260905015507 51 119 1.0 4.0 0.00 0.00 0.00 69 1017.5
20260905015027 51 105 2.0 4.0 0.00 0.00 0.00 68 1018.9
20260905015015 51 98 0.0 7.0 0.00 0.00 0.00 68 1017.4
20260905014526 51 106 2.0 7.0 0.00 0.00 0.00 68 1017.4
20260905014521 52 104 2.0 7.0 0.00 0.00 0.00 69 1018.8
20260905014015 52 123 2.0 7.0 0.00 0.00 0.00 67 1018.7
20260905014007 51 124 3.0 7.0 0.00 0.00 0.00 67 1017.4
20260905013510 52 114 2.0 4.0 0.00 0.00 0.00 67 1017.4
20260905013508 52 114 2.0 4.0 0.00 0.00 0.00 67 1018.7
20260905013029 52 118 1.0 7.0 0.00 0.00 0.00 65 1017.3
20260905013004 52 118 2.0 7.0 0.00 0.00 0.00 65 1018.5
20260905012507 52 103 3.0 7.0 0.00 0.00 0.00 66 1017.3
20260905012458 53 111 2.0 7.0 0.00 0.00 0.00 66 1018.5
20260905012010 53 121 0.0 8.0 0.00 0.00 0.00 63 1017.2
20260905011950 53 138 2.0 8.0 0.00 0.00 0.00 63 1018.5
20260905011512 53 112 1.0 9.0 0.00 0.00 0.00 64 1017.3
20260905011444 53 112 3.0 9.0 0.00 0.00 0.00 64 1018.5
20260905011009 53 119 3.0 9.0 0.00 0.00 0.00 63 1017.1
20260905010938 53 112 4.0 9.0 0.00 0.00 0.00 64 1018.3
20260905010505 53 109 3.0 8.0 0.00 0.00 0.00 64 1017.1
20260905010433 54 40 3.0 8.0 0.00 0.00 0.00 64 1018.4
20260905010020 53 125 2.0 8.0 0.00 0.00 0.00 63 1017.1
20260905005927 54 108 3.0 10.0 0.00 0.00 0.00 63 1018.3
20260905005511 54 114 4.0 12.0 0.00 0.00 0.00 64 1017.0
20260905005421 54 105 6.0 12.0 0.00 0.00 0.00 65 1018.4
20260905005013 53 112 6.0 12.0 0.00 0.00 0.00 66 1016.9
20260905004915 54 115 4.0 12.0 0.00 0.00 0.00 67 1018.2
20260905004520 53 85 2.0 10.0 0.00 0.00 0.00 65 1016.9
20260905004409 53 107 2.0 7.0 0.00 0.00 0.00 65 1018.3
20260905004128 53 108 2.0 7.0 0.00 0.00 0.00 65 1018.2
20260905004014 53 113 3.0 7.0 0.00 0.00 0.00 65 1016.8
20260905003518 53 102 2.0 7.0 0.00 0.00 0.00 65 1016.8
20260905003357 53 99 3.0 6.0 0.00 0.00 0.00 66 1018.2
20260905003012 52 104 2.0 6.0 0.00 0.00 0.00 65 1016.8
20260905002851 53 112 3.0 7.0 0.00 0.00 0.00 66 1018.2
20260905002509 52 107 3.0 7.0 0.00 0.00 0.00 65 1016.8
20260905002345 53 101 2.0 7.0 0.00 0.00 0.00 66 1018.1
20260905002015 52 112 1.0 7.0 0.00 0.00 0.00 63 1016.8
20260905001839 53 119 1.0 6.0 0.00 0.00 0.00 64 1018.1
20260905001534 52 144 0.0 4.0 0.00 0.00 0.00 63 1016.7
20260905001333 53 144 2.0 6.0 0.00 0.00 0.00 64 1018.1
20260905001007 52 136 2.0 6.0 0.00 0.00 0.00 65 1016.8
20260905000827 53 130 1.0 6.0 0.00 0.00 0.00 66 1018.1
20260905000511 52 107 1.0 6.0 0.00 0.00 0.00 64 1016.8
20260905000321 53 113 1.0 4.0 0.00 0.00 0.00 64 1018.1
20260905000016 52 113 0.0 6.0 0.00 0.00 0.00 65 1016.7
20260904235816 53 113 1.0 6.0 0.00 0.00 0.00 65 1018.1
20260904235509 53 113 1.0 6.0 0.00 0.00 0.00 64 1016.8
20260904235309 53 106 1.0 6.0 0.00 0.00 0.00 64 1018.1
20260904235009 53 103 0.0 4.0 0.00 0.00 0.00 63 1016.8
20260904234803 53 103 1.0 4.0 0.00 0.00 0.00 64 1018.1
20260904234521 53 96 0.0 4.0 0.00 0.00 0.00 62 1016.8
20260904234257 53 96 1.0 4.0 0.00 0.00 0.00 61 1018.1
20260904234012 53 110 0.0 3.0 0.00 0.00 0.00 62 1016.8
20260904233751 53 111 0.0 0.0 0.00 0.00 0.00 61 1018.1
20260904233510 53 160 0.0 0.0 0.00 0.00 0.00 61 1016.7
20260904233245 53 129 0.0 0.0 0.00 0.00 0.00 63 1018.1
20260904233027 53 130 0.0 0.0 0.00 0.00 0.00 60 1016.6
20260904232739 53 130 0.0 3.0 0.00 0.00 0.00 60 1018.1
20260904232514 53 240 0.0 3.0 0.00 0.00 0.00 58 1016.6
20260904232233 53 240 1.0 4.0 0.00 0.00 0.00 60 1018.1
20260904232013 53 240 1.0 5.0 0.00 0.00 0.00 58 1016.7
20260904231731 54 240 1.0 5.0 0.00 0.00 0.00 60 1018.0
20260904231524 54 282 2.0 8.0 0.00 0.00 0.00 59 1016.5
20260904231216 54 220 2.0 10.0 0.00 0.00 0.00 59 1017.9
20260904231019 54 270 0.0 10.0 0.00 0.00 0.00 62 1016.6
20260904230711 54 111 4.0 10.0 0.00 0.00 0.00 62 1017.9
20260904230515 53 118 4.0 10.0 0.00 0.00 0.00 62 1016.5
20260904230205 53 101 3.0 7.0 0.00 0.00 0.00 64 1017.9
20260904230006 53 114 3.0 7.0 0.00 0.00 0.00 66 1016.5
20260904225659 53 92 2.0 7.0 0.00 0.00 0.00 64 1017.7
20260904225503 53 114 1.0 7.0 0.00 0.00 0.00 65 1016.5
20260904225153 53 108 1.0 7.0 0.00 0.00 0.00 64 1017.9
20260904225002 52 123 1.0 6.0 0.00 0.00 0.00 63 1016.6
20260904224647 53 123 1.0 4.0 0.00 0.00 0.00 63 1017.9
20260904224505 52 231 0.0 4.0 0.00 0.00 0.00 62 1016.6
20260904224141 53 240 2.0 8.0 0.00 0.00 0.00 60 1017.9
20260904224002 53 244 1.0 11.0 0.00 0.00 0.00 60 1016.5
20260904223634 54 197 2.0 11.0 0.00 0.00 0.00 60 1017.9
20260904223502 53 183 2.0 11.0 0.00 0.00 0.00 59 1016.5
20260904223129 54 70 3.0 11.0 0.00 0.00 0.00 60 1017.9
20260904223003 53 180 2.0 9.0 0.00 0.00 0.00 60 1016.4
20260904222843 54 112 4.0 9.0 0.00 0.00 0.00 61 1017.7
20260904222501 53 109 3.0 9.0 0.00 0.00 0.00 60 1016.5
20260904222117 54 149 4.0 9.0 0.00 0.00 0.00 62 1017.7
20260904222006 53 107 4.0 9.0 0.00 0.00 0.00 64 1016.5
20260904221611 53 105 3.0 9.0 0.00 0.00 0.00 66 1017.9
20260904221505 53 107 3.0 9.0 0.00 0.00 0.00 64 1016.5
20260904221105 53 117 2.0 7.0 0.00 0.00 0.00 68 1017.9
20260904221004 52 107 2.0 7.0 0.00 0.00 0.00 67 1016.5
20260904220603 52 108 1.0 7.0 0.00 0.00 0.00 67 1018.0
20260904220505 52 111 1.0 5.0 0.00 0.00 0.00 64 1016.6
20260904220004 52 244 2.0 5.0 0.00 0.00 0.00 63 1016.6
20260904215603 53 238 2.0 8.0 0.00 0.00 0.00 64 1018.0
20260904215503 52 237 1.0 8.0 0.00 0.00 0.00 63 1016.5
20260904215103 53 246 2.0 9.0 0.00 0.00 0.00 64 1017.9
20260904215003 52 254 3.0 9.0 0.00 0.00 0.00 63 1016.5
20260904214603 52 230 3.0 9.0 0.00 0.00 0.00 66 1017.9
20260904214504 52 102 4.0 9.0 0.00 0.00 0.00 67 1016.5
20260904214102 52 113 2.0 7.0 0.00 0.00 0.00 69 1017.9
20260904214008 51 113 3.0 7.0 0.00 0.00 0.00 69 1016.5
20260904213820 52 106 3.0 9.0 0.00 0.00 0.00 69 1017.9
20260904213502 51 83 1.0 9.0 0.00 0.00 0.00 69 1016.5
20260904213101 51 121 4.0 9.0 0.00 0.00 0.00 68 1017.9
20260904213005 51 121 2.0 11.0 0.00 0.00 0.00 67 1016.5
20260904212602 51 113 3.0 11.0 0.00 0.00 0.00 70 1017.9
20260904212504 51 102 3.0 11.0 0.00 0.00 0.00 69 1016.5
20260904212101 51 118 2.0 11.0 0.00 0.00 0.00 72 1017.7
20260904212002 50 94 2.0 7.0 0.00 0.00 0.00 71 1016.5
20260904211601 51 90 1.0 7.0 0.00 0.00 0.00 75 1017.7
20260904211504 50 279 0.0 7.0 0.00 0.00 0.00 74 1016.4
20260904211057 50 77 0.0 6.0 0.00 0.00 0.00 76 1017.7
20260904211003 50 76 0.0 6.0 0.00 0.00 0.00 75 1016.4
20260904210557 50 115 0.0 0.0 0.00 0.00 0.00 77 1017.7
20260904210504 49 115 0.0 0.0 0.00 0.00 0.00 77 1016.4
20260904210324 50 115 0.0 0.0 0.00 0.00 0.00 78 1017.7
20260904210008 49 115 0.0 0.0 0.00 0.00 0.00 78 1016.3
20260904205556 49 114 0.0 0.0 0.00 0.00 0.00 79 1017.7
20260904205503 49 114 0.0 0.0 0.00 0.00 0.00 78 1016.3
20260904205057 49 114 0.0 0.0 0.00 0.00 0.00 81 1017.6
20260904205003 48 114 0.0 0.0 0.00 0.00 0.00 80 1016.2
20260904204818 48 114 0.0 1.0 0.00 0.00 0.00 80 1017.6
20260904204512 48 114 0.0 2.0 0.00 0.00 0.00 80 1016.2
20260904204057 48 114 0.0 2.0 0.00 0.00 0.00 82 1017.6
20260904204009 47 114 0.0 2.0 0.00 0.00 0.00 82 1016.2
20260904203557 47 115 0.0 2.0 0.00 0.00 0.00 82 1017.6
20260904203504 47 148 0.0 0.0 0.00 0.00 0.00 81 1016.2
20260904203056 47 218 0.0 0.0 0.00 0.00 0.00 84 1017.6
20260904203010 47 218 0.0 0.0 0.00 0.00 0.00 83 1016.3
20260904202553 47 218 0.0 0.0 0.00 0.00 0.00 83 1017.5
20260904202510 46 218 0.0 0.0 0.00 0.00 0.00 83 1016.3
20260904202053 47 218 0.0 0.0 0.00 0.00 0.00 83 1017.5
20260904202005 46 218 0.0 0.0 0.00 0.00 0.00 83 1016.2
20260904201552 47 218 0.0 0.0 0.00 0.00 0.00 83 1017.5
20260904201503 46 218 0.0 0.0 0.00 0.00 0.00 82 1016.2
20260904201313 47 218 0.0 0.0 0.00 0.00 0.00 83 1017.4
20260904201003 46 218 0.0 0.0 0.00 0.00 0.00 82 1016.2
20260904200814 47 218 0.0 0.0 0.00 0.00 0.00 82 1017.5
20260904200503 46 218 0.0 0.0 0.00 0.00 0.00 82 1016.2
20260904200053 47 218 0.0 0.0 0.00 0.00 0.00 82 1017.5
20260904200004 46 218 0.0 0.0 0.00 0.00 0.00 82 1016.2
20260904195553 47 218 0.0 0.0 0.00 0.00 0.00 82 1017.5
20260904195506 46 218 0.0 0.0 0.00 0.00 0.00 81 1016.1
20260904195053 47 218 0.0 0.0 0.00 0.00 0.00 83 1017.5
20260904195003 46 218 0.0 0.0 0.00 0.00 0.00 82 1016.1
20260904194553 47 218 0.0 0.0 0.00 0.00 0.00 83 1017.5
20260904194506 46 218 0.0 0.0 0.00 0.00 0.00 82 1016.1
20260904194046 47 218 0.0 0.0 0.00 0.00 0.00 83 1017.6
20260904194004 46 218 0.0 0.0 0.00 0.00 0.00 82 1016.1
20260904193539 47 218 0.0 0.0 0.00 0.00 0.00 82 1017.7
20260904193504 46 218 0.0 0.0 0.00 0.00 0.00 81 1016.1
20260904193034 47 218 0.0 0.0 0.00 0.00 0.00 82 1017.6
20260904193012 46 218 0.0 0.0 0.00 0.00 0.00 81 1016.1
20260904192528 47 217 0.0 0.0 0.00 0.00 0.00 83 1017.6
20260904192503 46 217 0.0 0.0 0.00 0.00 0.00 83 1016.1
20260904192023 47 217 0.0 0.0 0.00 0.00 0.00 83 1017.6
20260904192003 46 217 0.0 0.0 0.00 0.00 0.00 83 1016.0
20260904191525 47 217 0.0 0.0 0.00 0.00 0.00 85 1017.6
20260904191515 46 217 0.0 0.0 0.00 0.00 0.00 84 1016.0
20260904191021 47 211 0.0 0.0 0.00 0.00 0.00 85 1017.6
20260904191010 46 211 0.0 0.0 0.00 0.00 0.00 84 1016.0
20260904190519 46 251 0.0 0.0 0.00 0.00 0.00 83 1017.5
20260904190504 46 251 0.0 0.0 0.00 0.00 0.00 83 1016.0
20260904190016 46 251 0.0 0.0 0.00 0.00 0.00 84 1017.5
20260904190009 46 251 0.0 0.0 0.00 0.00 0.00 83 1016.0
20260904185514 46 251 0.0 0.0 0.00 0.00 0.00 84 1017.5
20260904185503 46 251 0.0 0.0 0.00 0.00 0.00 83 1016.0
20260904185237 46 251 0.0 0.0 0.00 0.00 0.00 83 1017.5
20260904185003 46 251 0.0 0.0 0.00 0.00 0.00 83 1015.9
20260904184512 46 251 0.0 0.0 0.00 0.00 0.00 83 1015.9
20260904184011 47 251 0.0 0.0 0.00 0.00 0.00 84 1017.3
20260904184005 46 251 0.0 0.0 0.00 0.00 0.00 83 1015.8
20260904183508 47 238 0.0 0.0 0.00 0.00 0.00 84 1017.1
20260904183505 46 238 0.0 0.0 0.00 0.00 0.00 84 1015.9
20260904183009 47 238 0.0 0.0 0.00 0.00 0.00 85 1017.1
20260904183003 46 238 0.0 0.0 0.00 0.00 0.00 84 1015.8
20260904182507 46 261 0.0 0.0 0.00 0.00 0.00 84 1015.8
20260904182011 46 261 0.0 0.0 0.00 0.00 0.00 84 1015.8
20260904182008 46 261 0.0 0.0 0.00 0.00 0.00 85 1016.9
20260904181514 45 260 0.0 0.0 0.00 0.00 0.00 84 1015.7
20260904181509 46 260 0.0 0.0 0.00 0.00 0.00 84 1016.9
20260904181009 46 288 0.0 0.0 0.00 0.00 0.00 84 1016.8
20260904180511 46 282 0.0 0.0 0.00 0.00 0.00 84 1015.7
20260904180508 46 282 0.0 0.0 0.00 0.00 0.00 85 1016.8
20260904180040 46 282 0.0 6.0 0.00 0.00 0.00 84 1015.6
20260904180008 46 282 1.0 6.0 0.00 0.00 0.00 85 1016.7
20260904175509 46 281 1.0 6.0 0.00 0.00 0.00 85 1016.8
20260904175504 46 281 0.0 6.0 0.00 0.00 0.00 84 1015.5
20260904175225 46 342 0.0 3.0 0.00 0.00 0.00 86 1016.7
20260904175004 46 342 0.0 3.0 0.00 0.00 0.00 85 1015.5
20260904174521 46 110 0.0 3.0 0.00 0.00 0.00 84 1015.5
20260904174502 46 110 0.0 3.0 0.00 0.00 0.00 85 1016.7
20260904174013 46 110 0.0 4.0 0.00 0.00 0.00 84 1015.4
20260904173956 46 110 1.0 4.0 0.00 0.00 0.00 84 1016.7
20260904173505 46 108 0.0 4.0 0.00 0.00 0.00 85 1015.3
20260904173450 46 108 2.0 4.0 0.00 0.00 0.00 85 1016.7
20260904173007 46 105 1.0 7.0 0.00 0.00 0.00 85 1015.3
20260904172944 46 109 2.0 7.0 0.00 0.00 0.00 85 1016.7
20260904172658 46 116 3.0 7.0 0.00 0.00 0.00 86 1016.5
20260904172503 46 116 2.0 7.0 0.00 0.00 0.00 85 1015.3
20260904172004 46 112 3.0 8.0 0.00 0.00 0.00 85 1015.3
20260904171932 46 111 3.0 8.0 0.00 0.00 0.00 86 1016.4
20260904171516 45 99 1.0 8.0 0.00 0.00 0.00 85 1015.2
20260904171426 46 113 2.0 8.0 0.00 0.00 0.00 86 1016.4
20260904171142 46 128 1.0 3.0 0.00 0.00 0.00 86 1016.4
20260904171006 45 106 2.0 8.0 0.00 0.00 0.00 85 1015.2
20260904170509 45 148 0.0 7.0 0.00 0.00 0.00 85 1015.1
20260904170415 46 148 2.0 7.0 0.00 0.00 0.00 86 1016.3
20260904170008 45 146 1.0 8.0 0.00 0.00 0.00 88 1015.0
20260904165908 46 111 3.0 8.0 0.00 0.00 0.00 88 1016.4
20260904165506 45 115 3.0 8.0 0.00 0.00 0.00 87 1015.1
20260904165402 45 100 2.0 7.0 0.00 0.00 0.00 87 1016.3
20260904165120 45 111 2.0 4.0 0.00 0.00 0.00 88 1016.3
20260904165008 45 108 3.0 7.0 0.00 0.00 0.00 87 1015.0
20260904164523 44 100 0.0 4.0 0.00 0.00 0.00 87 1014.9
20260904164350 45 100 2.0 4.0 0.00 0.00 0.00 88 1016.1
20260904164003 44 101 2.0 4.0 0.00 0.00 0.00 87 1014.9
20260904163845 44 101 1.0 4.0 0.00 0.00 0.00 88 1016.0
20260904163510 44 130 0.0 3.0 0.00 0.00 0.00 87 1014.9
20260904163337 44 130 1.0 3.0 0.00 0.00 0.00 87 1016.1
20260904163054 44 121 1.0 3.0 0.00 0.00 0.00 87 1016.0
20260904163027 44 130 0.0 3.0 0.00 0.00 0.00 87 1014.8
20260904162504 44 121 0.0 7.0 0.00 0.00 0.00 87 1014.7
20260904162326 44 116 2.0 7.0 0.00 0.00 0.00 87 1016.0
20260904162007 44 124 2.0 9.0 0.00 0.00 0.00 87 1014.7
20260904161821 44 97 3.0 9.0 0.00 0.00 0.00 88 1015.9
20260904161511 44 128 2.0 9.0 0.00 0.00 0.00 87 1014.7
20260904161314 44 105 2.0 9.0 0.00 0.00 0.00 87 1015.9
20260904161029 44 107 1.0 7.0 0.00 0.00 0.00 88 1015.9
20260904161003 44 106 2.0 7.0 0.00 0.00 0.00 88 1014.7
20260904160503 43 86 1.0 7.0 0.00 0.00 0.00 87 1014.6
20260904160302 44 110 1.0 7.0 0.00 0.00 0.00 88 1015.9
20260904160016 43 82 0.0 7.0 0.00 0.00 0.00 88 1014.6
20260904155756 44 113 1.0 4.0 0.00 0.00 0.00 88 1016.0
20260904155509 44 115 2.0 7.0 0.00 0.00 0.00 89 1015.9
20260904155507 43 115 0.0 7.0 0.00 0.00 0.00 88 1014.6
20260904155005 43 103 1.0 7.0 0.00 0.00 0.00 89 1014.5
20260904154744 43 111 2.0 7.0 0.00 0.00 0.00 90 1015.8
20260904154533 43 100 2.0 6.0 0.00 0.00 0.00 90 1014.5
20260904154238 43 99 2.0 6.0 0.00 0.00 0.00 90 1015.9
20260904154012 42 99 1.0 6.0 0.00 0.00 0.00 90 1014.5
20260904153732 43 98 1.0 6.0 0.00 0.00 0.00 91 1015.8
20260904153510 42 112 2.0 3.0 0.00 0.00 0.00 91 1014.4
20260904153226 42 109 1.0 3.0 0.00 0.00 0.00 91 1015.7
20260904153010 42 109 0.0 4.0 0.00 0.00 0.00 91 1014.3
20260904152720 42 109 1.0 4.0 0.00 0.00 0.00 91 1015.6
20260904152509 42 109 1.0 4.0 0.00 0.00 0.00 91 1014.3
20260904152214 42 109 0.0 4.0 0.00 0.00 0.00 91 1015.6
20260904152011 41 128 0.0 1.0 0.00 0.00 0.00 91 1014.2
20260904151708 42 128 0.0 3.0 0.00 0.00 0.00 91 1015.5
20260904151533 41 128 0.0 4.0 0.00 0.00 0.00 91 1014.2
20260904151427 42 126 1.0 4.0 0.00 0.00 0.00 92 1015.5
20260904151006 41 126 0.0 4.0 0.00 0.00 0.00 92 1014.3
20260904150656 41 139 0.0 4.0 0.00 0.00 0.00 92 1015.6
20260904150510 41 131 0.0 2.0 0.00 0.00 0.00 92 1014.2
20260904150150 41 131 0.0 4.0 0.00 0.00 0.00 93 1015.5
20260904150031 40 131 0.0 4.0 0.00 0.00 0.00 92 1014.2
20260904145644 41 127 1.0 6.0 0.00 0.00 0.00 93 1015.5
20260904145507 40 127 1.0 6.0 0.00 0.00 0.00 93 1014.1
20260904145138 40 198 1.0 6.0 0.00 0.00 0.00 93 1015.3
20260904145009 40 198 0.0 6.0 0.00 0.00 0.00 93 1014.1
20260904144519 40 171 0.0 0.0 0.00 0.00 0.00 93 1013.9
20260904144126 40 171 0.0 0.0 0.00 0.00 0.00 93 1015.1
20260904144005 40 171 0.0 0.0 0.00 0.00 0.00 93 1013.9
20260904143620 40 171 0.0 0.0 0.00 0.00 0.00 93 1015.1
20260904143506 40 171 0.0 0.0 0.00 0.00 0.00 93 1013.8
20260904143114 40 171 0.0 0.0 0.00 0.00 0.00 93 1015.0
20260904143026 39 171 0.0 0.0 0.00 0.00 0.00 93 1013.7
20260904142608 40 171 0.0 0.0 0.00 0.00 0.00 93 1014.9
20260904142512 39 171 0.0 0.0 0.00 0.00 0.00 92 1013.6
20260904142102 40 171 0.0 0.0 0.00 0.00 0.00 93 1014.9
20260904142007 39 171 0.0 0.0 0.00 0.00 0.00 92 1013.6
20260904141556 40 171 0.0 0.0 0.00 0.00 0.00 92 1014.7
20260904141523 39 171 0.0 0.0 0.00 0.00 0.00 92 1013.5
20260904141050 39 171 0.0 0.0 0.00 0.00 0.00 92 1014.7
20260904141015 39 171 0.0 0.0 0.00 0.00 0.00 92 1013.4
20260904140544 39 171 0.0 0.0 0.00 0.00 0.00 92 1014.5
20260904140513 39 171 0.0 0.0 0.00 0.00 0.00 92 1013.4
20260904140038 39 171 0.0 0.0 0.00 0.00 0.00 92 1014.5
20260904140017 39 171 0.0 0.0 0.00 0.00 0.00 91 1013.4
20260904135532 39 171 0.0 0.0 0.00 0.00 0.00 92 1014.5
20260904135503 39 171 0.0 0.0 0.00 0.00 0.00 91 1013.3
20260904135026 39 171 0.0 0.0 0.00 0.00 0.00 91 1014.4
20260904135002 39 171 0.0 0.0 0.00 0.00 0.00 91 1013.1
20260904134743 39 171 0.0 0.0 0.00 0.00 0.00 91 1014.3
20260904134514 39 171 0.0 0.0 0.00 0.00 0.00 91 1013.0
20260904134235 40 171 0.0 0.0 0.00 0.00 0.00 91 1014.2
20260904134006 39 171 0.0 0.0 0.00 0.00 0.00 91 1013.0
20260904133508 40 171 0.0 0.0 0.00 0.00 0.00 91 1014.1
20260904133502 39 171 0.0 0.0 0.00 0.00 0.00 91 1012.8
20260904133011 39 171 0.0 0.0 0.00 0.00 0.00 91 1012.7
20260904133008 40 171 0.0 0.0 0.00 0.00 0.00 91 1014.0
20260904132509 39 171 0.0 0.0 0.00 0.00 0.00 90 1012.7
20260904132006 40 171 0.0 0.0 0.00 0.00 0.00 91 1014.1
20260904132004 40 171 0.0 0.0 0.00 0.00 0.00 90 1012.8
20260904131502 40 171 0.0 0.0 0.00 0.00 0.00 90 1012.8
20260904131005 40 171 0.0 0.0 0.00 0.00 0.00 90 1014.1
20260904131003 40 171 0.0 0.0 0.00 0.00 0.00 90 1012.8
20260904130506 40 171 0.0 0.0 0.00 0.00 0.00 91 1014.0
20260904130503 40 171 0.0 0.0 0.00 0.00 0.00 90 1012.7
20260904130006 40 171 0.0 0.0 0.00 0.00 0.00 91 1013.9
20260904130003 40 171 0.0 0.0 0.00 0.00 0.00 90 1012.5
20260904125730 41 171 0.0 0.0 0.00 0.00 0.00 91 1013.7
20260904125503 40 171 0.0 0.0 0.00 0.00 0.00 90 1012.4
20260904125006 41 171 0.0 0.0 0.00 0.00 0.00 91 1013.5
20260904125003 40 171 0.0 0.0 0.00 0.00 0.00 90 1012.3
20260904124504 40 124 0.0 0.0 0.00 0.00 0.00 90 1012.2
20260904124004 41 124 0.0 0.0 0.00 0.00 0.00 91 1013.6
20260904123506 41 124 0.0 0.0 0.00 0.00 0.00 90 1012.2
20260904123503 41 124 0.0 0.0 0.00 0.00 0.00 91 1013.6
20260904123013 41 124 0.0 0.0 0.00 0.00 0.00 90 1012.2
20260904123004 41 124 0.0 0.0 0.00 0.00 0.00 91 1013.6
20260904122503 41 124 0.0 0.0 0.00 0.00 0.00 90 1012.2
20260904122007 41 124 0.0 0.0 0.00 0.00 0.00 89 1012.2
20260904122002 41 124 0.0 0.0 0.00 0.00 0.00 90 1013.5
20260904121516 41 124 0.0 0.0 0.00 0.00 0.00 89 1012.1
20260904121457 41 124 0.0 0.0 0.00 0.00 0.00 90 1013.4
20260904121012 41 124 0.0 0.0 0.00 0.00 0.00 89 1012.0
20260904120958 41 124 0.0 0.0 0.00 0.00 0.00 89 1013.3
20260904120503 41 124 0.0 0.0 0.00 0.00 0.00 89 1012.0
20260904120457 42 124 0.0 0.0 0.00 0.00 0.00 89 1013.4
20260904120018 41 124 0.0 0.0 0.00 0.00 0.00 88 1011.9
20260904115957 42 124 0.0 0.0 0.00 0.00 0.00 89 1013.3
20260904115503 41 124 0.0 0.0 0.00 0.00 0.00 88 1011.9
20260904115458 42 124 0.0 0.0 0.00 0.00 0.00 89 1013.3
20260904115003 42 124 0.0 0.0 0.00 0.00 0.00 88 1011.9
20260904114958 42 124 0.0 0.0 0.00 0.00 0.00 89 1013.3
20260904114718 42 124 0.0 0.0 0.00 0.00 0.00 88 1013.3
20260904114504 42 124 0.0 0.0 0.00 0.00 0.00 87 1012.0
20260904114006 42 124 0.0 0.0 0.00 0.00 0.00 87 1012.0
20260904113957 42 124 0.0 0.0 0.00 0.00 0.00 88 1013.3
20260904113505 42 124 0.0 0.0 0.00 0.00 0.00 87 1011.9
20260904113458 43 124 0.0 0.0 0.00 0.00 0.00 88 1013.3
20260904113009 43 120 0.0 0.0 0.00 0.00 0.00 87 1011.9
20260904112958 43 120 0.0 0.0 0.00 0.00 0.00 88 1013.2
20260904112721 43 120 0.0 0.0 0.00 0.00 0.00 88 1013.2
20260904112503 43 120 0.0 0.0 0.00 0.00 0.00 87 1011.9
20260904112225 43 120 0.0 0.0 0.00 0.00 0.00 88 1013.2
20260904112005 43 120 0.0 0.0 0.00 0.00 0.00 87 1011.9
20260904111519 43 120 0.0 0.0 0.00 0.00 0.00 87 1011.8
20260904111458 43 120 0.0 0.0 0.00 0.00 0.00 88 1013.2
20260904111222 43 120 0.0 3.0 0.00 0.00 0.00 88 1013.2
20260904111005 42 120 0.0 3.0 0.00 0.00 0.00 87 1011.8
20260904110507 42 107 0.0 4.0 0.00 0.00 0.00 87 1011.7
20260904110457 43 107 1.0 4.0 0.00 0.00 0.00 88 1013.1
20260904110026 42 107 1.0 4.0 0.00 0.00 0.00 88 1011.7
20260904105958 42 107 2.0 4.0 0.00 0.00 0.00 88 1013.1
20260904105733 42 109 2.0 8.0 0.00 0.00 0.00 90 1012.9
20260904105552 42 109 0.0 8.0 0.00 0.00 0.00 89 1011.7
20260904105004 41 101 3.0 8.0 0.00 0.00 0.00 90 1011.6
20260904104958 42 96 2.0 8.0 0.00 0.00 0.00 91 1012.8
20260904104534 41 111 2.0 7.0 0.00 0.00 0.00 91 1011.5
20260904104458 41 111 1.0 7.0 0.00 0.00 0.00 92 1012.8
20260904104014 41 116 0.0 2.0 0.00 0.00 0.00 91 1011.5
20260904103958 41 116 0.0 2.0 0.00 0.00 0.00 92 1012.9
20260904103505 41 116 0.0 0.0 0.00 0.00 0.00 91 1011.5
20260904103458 41 116 0.0 0.0 0.00 0.00 0.00 92 1012.8
20260904103008 41 116 0.0 0.0 0.00 0.01 0.00 91 1011.5
20260904102955 41 116 0.0 0.0 0.00 0.01 0.00 91 1012.8
20260904102504 41 116 0.0 0.0 0.00 0.01 0.00 91 1011.4
20260904102454 41 116 0.0 0.0 0.00 0.01 0.00 91 1012.7
20260904102004 41 116 0.0 0.0 0.00 0.01 0.00 91 1011.2
20260904101952 41 116 0.0 0.0 0.00 0.01 0.00 91 1012.6
20260904101512 41 116 0.0 0.0 0.00 0.01 0.00 91 1011.2
20260904101449 41 116 0.0 0.0 0.00 0.01 0.00 91 1012.6
20260904101005 41 116 0.0 0.0 0.00 0.01 0.00 90 1011.2
20260904100947 41 116 0.0 0.0 0.00 0.01 0.00 91 1012.5
20260904100708 41 116 0.0 0.0 0.00 0.01 0.00 91 1012.6
20260904100507 41 116 0.0 0.0 0.00 0.01 0.00 91 1011.2
20260904100010 41 116 0.0 0.0 0.00 0.01 0.00 91 1011.2
20260904095946 41 116 0.0 0.0 0.00 0.01 0.00 91 1012.5
20260904095709 41 116 0.0 0.0 0.00 0.01 0.00 91 1012.6
20260904095508 41 116 0.0 0.0 0.00 0.01 0.00 90 1011.3
20260904095007 41 116 0.0 0.0 0.00 0.01 0.00 90 1011.3
20260904094945 41 116 0.0 0.0 0.00 0.01 0.00 91 1012.6
20260904094535 41 116 0.0 0.0 0.00 0.01 0.00 90 1011.2
20260904094446 41 116 0.0 0.0 0.00 0.01 0.00 91 1012.5
20260904094202 41 116 0.0 0.0 0.00 0.01 0.00 91 1012.4
20260904094004 41 116 0.0 0.0 0.00 0.01 0.00 91 1011.2
20260904093512 41 116 0.0 0.0 0.00 0.01 0.00 91 1011.2
20260904093443 41 116 0.0 0.0 0.00 0.01 0.00 91 1012.5
20260904093029 41 116 0.0 0.0 0.00 0.01 0.00 91 1011.3
20260904092937 41 116 0.0 0.0 0.00 0.01 0.00 91 1012.6
20260904092504 41 116 0.0 0.0 0.00 0.01 0.00 91 1011.2
20260904092431 41 116 0.0 0.0 0.00 0.01 0.00 91 1012.6
20260904092149 41 116 0.0 0.0 0.00 0.01 0.00 91 1012.5
20260904092010 41 116 0.0 0.0 0.00 0.01 0.00 91 1011.2
20260904091508 41 116 0.0 0.0 0.00 0.01 0.00 91 1011.2
20260904091419 41 116 0.0 0.0 0.00 0.01 0.00 91 1012.6
20260904091004 41 116 0.0 0.0 0.00 0.01 0.00 91 1011.2
20260904090913 41 116 0.0 0.0 0.00 0.01 0.00 91 1012.5
20260904090632 41 116 0.0 0.0 0.00 0.01 0.00 92 1012.6
20260904090506 41 116 0.0 0.0 0.00 0.01 0.00 91 1011.3
20260904090019 41 116 0.0 0.0 0.00 0.01 0.00 91 1011.2
20260904085901 41 116 0.0 0.0 0.00 0.01 0.00 91 1012.6
20260904085611 41 116 0.0 0.0 0.00 0.01 0.00 91 1012.6
20260904085506 41 116 0.0 0.0 0.00 0.01 0.00 91 1011.3
20260904085004 41 116 0.0 0.0 0.00 0.01 0.00 91 1011.4
20260904084849 41 116 0.0 0.0 0.00 0.01 0.00 91 1012.6
20260904084517 41 116 0.0 0.0 0.00 0.01 0.00 91 1011.3
20260904084342 41 116 0.0 0.0 0.00 0.01 0.00 91 1012.7
20260904084012 41 116 0.0 0.0 0.00 0.01 0.00 91 1011.4
20260904083837 41 116 0.0 0.0 0.00 0.01 0.00 92 1012.7
20260904083552 41 116 0.0 0.0 0.00 0.01 0.00 91 1012.7
20260904083509 40 116 0.0 0.0 0.00 0.01 0.00 91 1011.4
20260904083013 40 116 0.0 0.0 0.00 0.01 0.00 91 1011.5
20260904082825 41 116 0.0 0.0 0.00 0.01 0.00 92 1012.8
20260904082508 40 116 0.0 0.0 0.00 0.01 0.00 91 1011.5
20260904082319 41 116 0.0 0.0 0.00 0.01 0.00 91 1012.8
20260904082014 40 116 0.0 0.0 0.00 0.01 0.00 91 1011.6
20260904081813 41 116 0.0 0.0 0.00 0.01 0.00 91 1012.9
20260904081533 40 116 0.0 0.0 0.00 0.01 0.00 91 1011.5
20260904081306 41 116 0.0 0.0 0.00 0.01 0.00 91 1012.9
20260904081008 40 116 0.0 0.0 0.00 0.01 0.00 91 1011.5
20260904080800 41 116 0.0 0.0 0.00 0.01 0.00 92 1012.8
20260904080512 40 116 0.0 0.0 0.00 0.01 0.00 91 1011.5
20260904080254 40 116 0.0 0.0 0.00 0.01 0.00 91 1012.8
20260904080031 40 116 0.0 0.0 0.00 0.01 0.00 91 1011.5
20260904080015 40 116 0.0 0.0 0.00 0.01 0.00 91 1012.8
20260904075506 40 116 0.0 0.0 0.00 0.01 0.00 91 1011.4
20260904075243 40 116 0.0 0.0 0.00 0.01 0.00 91 1012.7
20260904075007 40 116 0.0 0.0 0.00 0.01 0.00 91 1011.5
20260904074737 40 116 0.0 0.0 0.00 0.01 0.00 91 1012.7
20260904074514 40 116 0.0 0.0 0.00 0.01 0.00 91 1011.4
20260904074458 40 116 0.0 0.0 0.00 0.01 0.00 91 1012.8
20260904074013 39 116 0.0 0.0 0.00 0.01 0.00 90 1011.5
20260904073725 40 116 0.0 0.0 0.00 0.01 0.00 91 1012.8
20260904073512 39 116 0.0 0.0 0.00 0.01 0.00 90 1011.5
20260904073219 40 116 0.0 0.0 0.00 0.01 0.00 90 1012.8
20260904073032 39 116 0.0 0.0 0.00 0.01 0.00 89 1011.5
20260904072713 40 116 0.0 0.0 0.00 0.01 0.00 90 1012.8
20260904072513 39 116 0.0 0.0 0.00 0.01 0.00 90 1011.4
20260904072207 40 116 0.0 0.0 0.00 0.01 0.00 90 1012.7
20260904072011 39 116 0.0 0.0 0.00 0.01 0.00 89 1011.4
20260904071700 40 116 0.0 0.0 0.00 0.01 0.00 90 1012.7
20260904071520 39 116 0.0 0.0 0.00 0.01 0.00 89 1011.4
20260904071427 40 116 0.0 1.0 0.00 0.01 0.00 90 1012.7
20260904071020 39 116 0.0 1.0 0.00 0.01 0.00 89 1011.4
20260904070701 40 116 0.0 1.0 0.00 0.01 0.00 90 1012.8
20260904070516 39 116 0.0 1.0 0.00 0.01 0.00 89 1011.5
20260904070202 40 116 0.0 1.0 0.00 0.01 0.00 89 1012.8
20260904070036 39 116 0.0 0.0 0.00 0.01 0.00 88 1011.5
20260904065700 40 116 0.0 0.0 0.00 0.01 0.01 89 1012.8
20260904065505 39 116 0.0 0.0 0.00 0.01 0.01 88 1011.5
20260904065427 40 116 0.0 0.0 0.00 0.01 0.01 89 1012.8
20260904065003 39 116 0.0 0.0 0.00 0.01 0.01 88 1011.5
20260904064700 40 116 0.0 0.0 0.00 0.01 0.01 89 1012.8
20260904064510 39 116 0.0 0.0 0.00 0.01 0.01 88 1011.5
20260904064159 40 116 0.0 0.0 0.00 0.01 0.01 89 1012.8
20260904064003 39 116 0.0 0.0 0.00 0.01 0.01 88 1011.5
20260904063656 40 116 0.0 0.0 0.00 0.01 0.01 88 1012.9
20260904063503 39 116 0.0 0.0 0.00 0.01 0.01 88 1011.6
20260904063156 40 116 0.0 0.0 0.00 0.01 0.01 88 1012.8
20260904063010 39 116 0.0 0.0 0.00 0.01 0.01 88 1011.5
20260904062917 40 116 0.0 0.0 0.00 0.01 0.01 89 1012.7
20260904062505 39 116 0.0 0.0 0.00 0.01 0.01 88 1011.4
20260904062156 40 116 0.0 0.0 0.00 0.01 0.01 89 1012.7
20260904062002 39 116 0.0 0.0 0.00 0.01 0.01 88 1011.3
20260904061654 40 116 0.0 0.0 0.00 0.01 0.01 89 1012.8
20260904061507 39 116 0.0 0.0 0.00 0.01 0.01 88 1011.4
20260904061154 40 116 0.0 0.0 0.00 0.01 0.01 89 1012.8
20260904061004 40 116 0.0 0.0 0.00 0.01 0.01 89 1011.5
20260904060916 40 116 0.0 0.0 0.00 0.01 0.01 89 1012.8
20260904060505 40 116 0.0 0.0 0.00 0.01 0.01 88 1011.5
20260904060154 40 116 0.0 0.0 0.00 0.01 0.01 89 1012.8
20260904060006 40 116 0.0 0.0 0.00 0.01 0.01 88 1011.5
20260904055917 40 116 0.0 0.0 0.00 0.01 0.01 88 1012.8
20260904055505 40 116 0.0 0.0 0.00 0.01 0.01 88 1011.5
20260904055153 40 116 0.0 0.0 0.00 0.01 0.01 88 1012.9
20260904055006 40 116 0.0 0.0 0.00 0.01 0.01 88 1011.6
20260904054652 40 116 0.0 0.0 0.00 0.01 0.01 88 1013.1
20260904054508 40 116 0.0 0.0 0.00 0.01 0.01 87 1011.7
20260904054146 40 116 0.0 0.0 0.00 0.01 0.01 87 1013.1
20260904054004 40 116 0.0 0.0 0.00 0.01 0.01 87 1011.6
20260904053647 40 116 0.0 0.0 0.00 0.01 0.01 87 1013.1
20260904053507 40 116 0.0 0.0 0.00 0.01 0.01 86 1011.7
20260904053146 40 116 0.0 0.0 0.00 0.01 0.01 86 1013.1
20260904053018 40 116 0.0 0.0 0.00 0.01 0.01 86 1011.6
20260904052647 40 116 0.0 0.0 0.00 0.01 0.01 86 1013.1
20260904052504 40 116 0.0 0.0 0.00 0.01 0.01 86 1011.6
20260904052146 40 116 0.0 0.0 0.00 0.01 0.01 86 1012.9
20260904052003 40 116 0.0 0.0 0.00 0.01 0.01 85 1011.6
20260904051646 41 116 0.0 0.0 0.00 0.01 0.01 85 1012.9
20260904051514 40 116 0.0 0.0 0.00 0.01 0.01 85 1011.6
20260904051406 41 116 0.0 0.0 0.00 0.01 0.01 85 1012.9
20260904051010 40 116 0.0 0.0 0.00 0.01 0.01 85 1011.7
20260904050646 41 116 0.0 0.0 0.00 0.01 0.01 85 1012.9
20260904050504 40 116 0.0 0.0 0.00 0.01 0.01 85 1011.7
20260904050145 41 116 0.0 0.0 0.00 0.01 0.01 85 1013.1
20260904050024 41 116 0.0 0.0 0.00 0.01 0.01 85 1011.7
20260904045646 41 116 0.0 0.0 0.00 0.01 0.01 85 1013.1
20260904045504 41 116 0.0 0.0 0.00 0.01 0.01 85 1011.8
20260904045145 41 116 0.0 0.0 0.00 0.01 0.01 85 1013.2
20260904045004 41 116 0.0 0.0 0.00 0.01 0.01 84 1011.9
20260904044646 41 116 0.0 0.0 0.00 0.01 0.01 85 1013.3
20260904044516 41 116 0.0 0.0 0.00 0.01 0.01 85 1011.9
20260904044146 41 116 0.0 0.0 0.00 0.01 0.01 85 1013.2
20260904044002 41 116 0.0 0.0 0.00 0.01 0.01 85 1012.0
20260904043645 42 116 0.0 0.0 0.00 0.01 0.01 85 1013.4
20260904043502 41 116 0.0 0.0 0.00 0.01 0.01 85 1012.1
20260904043146 42 116 0.0 0.0 0.00 0.01 0.01 86 1013.4
20260904043006 41 116 0.0 0.0 0.00 0.01 0.01 85 1012.0
20260904042645 42 116 0.0 0.0 0.00 0.01 0.01 86 1013.3
20260904042503 41 116 0.0 0.0 0.00 0.01 0.01 85 1012.0
20260904042146 42 116 0.0 0.0 0.00 0.01 0.01 86 1013.4
20260904042007 41 116 0.0 0.0 0.00 0.01 0.01 85 1012.0
20260904041645 42 116 0.0 0.0 0.00 0.01 0.01 86 1013.3